User: anonymous   Login
Location: Mohawk View
(42.7837°N, 73.7885°W)
Time: 16:28:58
(UTC+00:00)
Language:

Cosmos 2263 Rocket - Orbit

View from above orbital plane
View from above orbital plane
View from above satellite
View from above satellite

Ground track
Ground track

The orbit data is extracted from the following two-line orbital elements,

1 22803U 93059B   21269.79299007 -.00000204  00000-0 -77691-4 0  9996
2 22803  70.9906 196.4800 0016800 173.6863 186.4476 14.16843798449616
Epoch (UTC): 26 September 2021 19:01:54
Eccentricity: 0.0016800
inclination: 70.9906°
perigee height: 824 km
apogee height: 848 km
right ascension of ascending node: 196.4800°
argument of perigee: 173.6863°
revolutions per day: 14.16843798
mean anomaly at epoch: 186.4476°
orbit number at epoch: 44961

The dashed part of the orbit path shows where the satellite is in the earth's shadow,  

DLR